BEIDOU 6 (C04)

Last updated on Mon Feb 13 2023 00:03:21 GMT+0000 (Coordinated Universal Time)

1 37210U 10057A 23043.57353628 -.00000099 00000+0 00000+0 0 9994 2 37210 0.9810 54.1402 0004539 179.5853 275.1846 1.00272334 45046
UTC large
Height (km)
Speed (km/s)
/
Latitude / Longitude
Inclination (degrees)
Orbital Period (minutes)
Azimuth
Elevation
Range (km)
Doppler Factor

Next 0 passes for location: London (51.5072 / 0.1276)

Sorry there are no passes over London.